Location: Unspecified
(0.0000°N, 0.0000°E)
Time: 21:48:35
(UTC+00:00)

SRMSAT - Visible Passes

Search period start: 25 April 2018 00:00
Search period end: 05 May 2018 00:00
Orbit: 849 x 866 km, 20.0° (Epoch: 25 April)

Date Brightness Start Highest point End Pass type
(mag) Time Alt. Az. Time Alt. Az. Time Alt. Az.
25 Apr ? 04:48:39 13° SSW 04:50:09 14° SSW 04:53:12 10° SSE visible
25 Apr ? 19:28:02 10° N 19:29:15 11° N 19:30:28 10° NNE visible
26 Apr ? 04:36:44 13° SSW 04:37:22 13° S 04:40:02 10° SSE visible
26 Apr ? 19:14:48 10° N 19:16:28 11° N 19:18:08 10° NNE visible
26 Apr ? 21:02:12 10° NNW 21:02:13 10° NNW 21:02:13 10° NNW visible
27 Apr ? 04:24:47 12° S 04:24:47 12° S 04:26:51 10° SSE visible
27 Apr ? 19:01:35 10° NNW 19:03:41 12° N 19:05:47 10° NNE visible
27 Apr ? 20:49:04 10° NW 20:50:06 14° NNW 20:50:06 14° NNW visible
28 Apr ? 04:12:48 11° S 04:12:48 11° S 04:13:39 10° S visible
28 Apr ? 18:48:24 10° NNW 18:50:54 13° N 18:53:23 10° NE visible
28 Apr ? 20:35:58 10° NW 20:37:58 18° NNW 20:37:58 18° NNW visible
29 Apr ? 18:35:13 10° NNW 18:38:06 14° N 18:40:59 10° NE visible
29 Apr ? 20:22:52 10° NW 20:25:51 23° NNW 20:25:51 23° NNW visible
30 Apr ? 18:22:03 10° NNW 18:25:17 15° NNE 18:28:31 10° NE visible
30 Apr ? 20:09:46 10° NW 20:13:45 29° N 20:13:45 29° N visible
01 May ? 05:21:59 10° S 05:23:51 11° S 05:25:42 10° SSE visible
01 May ? 19:56:41 10° NW 20:01:39 35° N 20:01:39 35° N visible
02 May ? 05:08:46 10° SSW 05:11:04 12° S 05:13:21 10° SSE visible
02 May ? 19:43:38 10° NW 19:49:14 40° NNE 19:49:34 40° NNE visible
03 May ? 04:55:34 10° SSW 04:58:16 13° S 05:00:58 10° SE visible
03 May ? 19:30:36 10° NW 19:36:19 46° NNE 19:37:31 40° NE visible
04 May ? 04:42:34 10° SSW 04:45:28 14° SSE 04:48:33 10° SE visible
04 May ? 19:17:35 10° NW 19:23:24 52° NNE 19:25:27 36° ENE visible
04 May ? 21:06:43 10° W 21:07:27 14° W 21:07:27 14° W visible
